Weather History for Warrensburg, MO

Change the Weather History Date:

Monday, April 14, 2014

  Actual Average (KSZL) Record (KSZL)
Temperature  
Mean Temperature - -  
Max Temperature 35 °F 64 °F 84 °F (2002)
Min Temperature 35 °F 44 °F 26 °F (1997)
Moisture  
Dew Point 32 °F    
Average Humidity 87    
Maximum Humidity 87    
Minimum Humidity 87    
Precipitation  
Precipitation 0.04 in - - ()
Sea Level Pressure  
Sea Level Pressure 30.00 in    
Wind  
Wind Speed 16 mph (NW)    
Max Wind Speed 22 mph    
Max Gust Speed 30 mph    
Visibility 8 miles    
Events      
Averages and records for this station are not official NWS values.
T = Trace of Precipitation, MM = Missing Value Source: NWS Daily Summary

Daily Weather History Graph

Daily Weather History Graph

Search for Another Location

Airport:

Trip Planner

Search our weather history database for the weather conditions in past years. The results will help you decide how hot, cold, wet, or windy it might be!

Date:

Astronomy

Apr. 14, 2014 Rise Set
Actual Time 6:40 AM CDT 7:51 PM CDT
Civil Twilight 6:12 AM CDT 8:18 PM CDT
Nautical Twilight 5:40 AM CDT 8:51 PM CDT
Astronomical Twilight 5:05 AM CDT 9:25 PM CDT
Moon 7:30 PM CDT (4/14) 6:12 AM CDT (4/14)
Length of Visible Light 14h 05m
Length of Day
13h 10m
Full, 100% of the Moon is Illuminated
Apr 14
Full
Apr 15
Full
Apr 22
Last Quarter
Apr 29
New
May 6
First Quarter

Hourly Weather History & Observations

Time (CDT) Temp. Windchill Dew Point Humidity Pressure Visibility Wind Dir Wind Speed Gust Speed Precip Events Conditions
12:15 AM - - - N/A% 29.73 in 4.0 mi WNW 20.7 mph 29.9 mph N/A   Unknown
12:35 AM - - - N/A% 29.73 in 3.0 mi NW 20.7 mph 26.5 mph N/A   Unknown
12:55 AM - - - N/A% 29.75 in 4.0 mi NW 18.4 mph 23.0 mph N/A   Unknown
1:15 AM - - - N/A% 29.76 in 5.0 mi NW 17.3 mph 23.0 mph N/A   Haze
1:35 AM - - - N/A% 29.76 in 5.0 mi NW 18.4 mph 28.8 mph N/A   Haze
1:55 AM - - - N/A% 29.77 in 10.0 mi NW 16.1 mph 23.0 mph N/A   Overcast
2:15 AM - - - N/A% 29.78 in 10.0 mi NW 21.9 mph 26.5 mph N/A   Overcast
2:35 AM - - - N/A% 29.78 in 10.0 mi NW 19.6 mph 24.2 mph N/A   Overcast
2:55 AM - - - N/A% 29.79 in 10.0 mi NW 19.6 mph 26.5 mph N/A   Overcast
3:15 AM - - - N/A% 29.80 in 10.0 mi NW 16.1 mph 23.0 mph N/A   Overcast
3:35 AM - - - N/A% 29.80 in 10.0 mi NNW 21.9 mph 28.8 mph N/A   Overcast
3:55 AM - - - N/A% 29.82 in 10.0 mi NW 19.6 mph 25.3 mph N/A   Overcast
4:15 AM - - - N/A% 29.83 in 10.0 mi NNW 16.1 mph 24.2 mph N/A   Overcast
4:35 AM - - - N/A% 29.82 in 10.0 mi NNW 13.8 mph 21.9 mph N/A   Overcast
4:55 AM 35.6 °F 25.2 °F 32.0 °F 87% 29.81 in 10.0 mi NNW 18.4 mph 29.9 mph N/A   Overcast
5:15 AM - - - N/A% 29.89 in 7.0 mi WNW 15.0 mph 21.9 mph N/A   Overcast
5:35 AM - - - N/A% 29.91 in 10.0 mi NW 12.7 mph 20.7 mph N/A   Overcast
5:55 AM - - - N/A% 29.90 in 7.0 mi NW 11.5 mph 18.4 mph N/A   Unknown
6:15 AM - - - N/A% 29.91 in 10.0 mi NNW 16.1 mph 26.5 mph N/A   Overcast
6:35 AM - - - N/A% 29.93 in 10.0 mi NW 13.8 mph 19.6 mph N/A   Overcast
6:55 AM - - - N/A% 29.95 in 10.0 mi NW 18.4 mph 26.5 mph N/A   Overcast
7:15 AM - - - N/A% 29.97 in 4.0 mi NW 13.8 mph 21.9 mph N/A   Unknown
7:35 AM - - - N/A% 29.98 in 4.0 mi NNW 17.3 mph 25.3 mph N/A   Unknown
7:55 AM - - - N/A% 29.97 in 5.0 mi NW 16.1 mph 24.2 mph N/A   Unknown
8:35 AM - - - N/A% 29.99 in 2.0 mi NW 16.1 mph 23.0 mph N/A   Unknown
8:55 AM - - - N/A% 30.01 in 3.0 mi NW 19.6 mph 25.3 mph N/A   Unknown
9:15 AM - - - N/A% 30.00 in 5.0 mi NW 15.0 mph 24.2 mph N/A   Unknown
9:35 AM - - - N/A% 30.02 in 10.0 mi NW 20.7 mph 27.6 mph N/A   Overcast
9:55 AM - - - N/A% 30.03 in 5.0 mi NW 16.1 mph 21.9 mph N/A   Unknown
10:15 AM - - - N/A% 30.05 in 2.0 mi NNW 13.8 mph 20.7 mph 0.01 in   Unknown
10:35 AM - - - N/A% 30.05 in 2.5 mi NW 13.8 mph 20.7 mph 0.01 in   Unknown
11:15 AM - - - N/A% 30.08 in 10.0 mi NW 11.5 mph 21.9 mph N/A   Overcast
11:35 AM - - - N/A% 30.08 in 10.0 mi NW 15.0 mph 27.6 mph N/A   Overcast
11:55 AM - - - N/A% 30.09 in 10.0 mi NW 17.3 mph 20.7 mph N/A   Overcast
12:15 PM - - - N/A% 30.09 in 10.0 mi NW 16.1 mph - N/A   Unknown
12:35 PM - - - N/A% 30.09 in 5.0 mi NW 17.3 mph 24.2 mph N/A   Unknown
12:55 PM - - - N/A% 30.09 in 10.0 mi NW 17.3 mph 20.7 mph N/A   Overcast
1:15 PM - - - N/A% 30.09 in 10.0 mi NW 15.0 mph 24.2 mph N/A   Overcast
1:35 PM - - - N/A% 30.08 in 10.0 mi NW 17.3 mph 24.2 mph 0.01 in   Mostly Cloudy
1:55 PM - - - N/A% 30.08 in 10.0 mi NW 16.1 mph 25.3 mph 0.01 in   Mostly Cloudy
2:15 PM - - - N/A% 30.09 in 10.0 mi NW 19.6 mph 27.6 mph N/A   Mostly Cloudy
2:35 PM - - - N/A% 30.09 in 10.0 mi WNW 19.6 mph 27.6 mph N/A   Overcast
2:55 PM - - - N/A% 30.09 in 10.0 mi NW 18.4 mph 27.6 mph N/A   Overcast
3:15 PM - - - N/A% 30.09 in 10.0 mi NNW 16.1 mph 26.5 mph N/A   Overcast
3:55 PM - - - N/A% 30.10 in 10.0 mi NW 15.0 mph 20.7 mph 0.01 in   Overcast
4:15 PM - - - N/A% 30.11 in 10.0 mi NW 17.3 mph 25.3 mph N/A   Mostly Cloudy
4:35 PM - - - N/A% 30.11 in 10.0 mi NNW 18.4 mph 24.2 mph N/A   Mostly Cloudy
4:55 PM - - - N/A% 30.11 in 10.0 mi North 17.3 mph 25.3 mph N/A   Mostly Cloudy
5:15 PM - - - N/A% 30.11 in 10.0 mi NW 17.3 mph 23.0 mph N/A   Scattered Clouds
5:55 PM - - - N/A% 30.10 in 10.0 mi NNW 15.0 mph 25.3 mph N/A   Clear
6:15 PM - - - N/A% 30.10 in 10.0 mi NW 15.0 mph 20.7 mph 0.01 in   Clear
6:35 PM - - - N/A% 30.10 in 10.0 mi NNW 16.1 mph 23.0 mph 0.01 in   Clear
6:55 PM - - - N/A% 30.11 in 10.0 mi NNW 11.5 mph 21.9 mph 0.01 in   Clear
7:15 PM - - - N/A% 30.11 in 10.0 mi NW 12.7 mph 17.3 mph N/A   Clear
7:35 PM - - - N/A% 30.12 in 10.0 mi NW 6.9 mph - N/A   Clear
7:55 PM - - - N/A% 30.12 in 10.0 mi NW 9.2 mph - N/A   Clear
8:15 PM - - - N/A% 30.13 in 10.0 mi NW 5.8 mph - N/A   Clear
9:15 PM - - - N/A% 30.16 in 10.0 mi NW 4.6 mph - N/A   Clear
9:35 PM - - - N/A% 30.17 in 10.0 mi NW 4.6 mph - N/A   Clear
9:55 PM - - - N/A% 30.17 in 10.0 mi WNW 4.6 mph - N/A   Clear
10:15 PM - - - N/A% 30.18 in 10.0 mi WNW 3.5 mph - N/A   Clear
10:55 PM - - - N/A% 30.18 in 10.0 mi NW 3.5 mph - N/A   Scattered Clouds
11:15 PM - - - N/A% 30.18 in 10.0 mi NNW 3.5 mph - N/A   Mostly Cloudy
11:35 PM - - - N/A% 30.18 in 10.0 mi Calm Calm - N/A   Overcast
11:55 PM - - - N/A% 30.19 in 10.0 mi Calm Calm - N/A   Overcast